Tracking 29606 objects as of 19-Sep-2024
HD Live streaming from Space Station
objects crossing your sky now

STARLINK-32077

Track STARLINK-32077 now!
10-day predictions
STARLINK-32077 is classified as:


NORAD ID: 60344
Int'l Code: 2024-136R
Perigee: 454.0 km
Apogee: 454.9 km
Inclination: 53.2 °
Period: 93.5 minutes
Semi major axis: 6825 km
RCS: Unknown
Launch date: August 2, 2024
Source: United States (US)
Launch site: AIR FORCE EASTERN TEST RANGE (AFETR)
Your satellite tracking list
Your tracking list is empty




NASA's NSSDC Master Catalog

Two Line Element Set (TLE):
1 60344U 24136R   24262.69349955 -.00004693  00000-0 -10756-3 0  9995
2 60344  53.1626  50.2580 0000679  65.3432 294.7644 15.39585726  8608
Source of the keplerian elements: AFSPC